Regional Weather Roundup
Issued by NWS

Home | Current Version | Previous Version | Text Only | Print | Product List | Glossary On
Versions: 1 2 3 4 5 6 7 8 9 10 11 12 13 14 15 16 17 18 19 20 21 22 23 24 25 26 27 28 29 30 31 32 33 34 35 36 37 38 39 40 41 42 43 44 45 46 47 48 49 50
000
ASUS42 KTBW 180417
RWRFL
FLORIDA REGIONAL WEATHER ROUNDUP
NATIONAL WEATHER SERVICE TAMPA BAY RUSKIN FL
1200 AM EDT SAT APR 18 2015

NOTE: "FAIR" INDICATES FEW OR NO CLOUDS BELOW 12,000 FEET WITH NO
SIGNIFICANT WEATHER AND/OR OBSTRUCTIONS TO VISIBILITY.


FLZ001>010-012>015-112-114-115-180500-
PANHANDLE FLORIDA

CITY           SKY/WX    TMP DP  RH WIND       PRES   REMARKS
PENSACOLA      CLOUDY    72  70  93 N5        29.96F
PENSACOLA NAS  MOCLDY    69  68  96 N6        29.95F FOG
MILTON NAS     CLOUDY    69  67  93 CALM      29.97
CRESTVIEW      CLOUDY    69  69 100 NE3       29.98F
DUKE FIELD     MOCLDY    71  69  95 CALM      29.96F
VALPARAISO     CLOUDY    72  70  93 N2        29.97S
MARY ESTHER    MOCLDY    73  66  78 SW3       29.96S
TRI COUNTY     FOG       67  66  97 CALM      29.97F VSB 1
PANAMA CITY    CLOUDY    74  72  93 CALM      29.96F
TYNDALL AFB    CLOUDY    75  72  88 CALM      29.97S
APALACHICOLA   CLOUDY    78  73  84 S8        29.98S

STATION/POSITION SKY/WX   TEMP    WIND        PRES    WAVE   SWELL
                          AIR SEA DIR/SP/G            HT/PER HT/PER
                          (F)     (DEG/KT/KT) (MB)    (FT/S) (FT/S)
30.1N   87.6W              74 73  320/  2/  4 1013.5F   3/ 6   3/ 6
29.2N   88.2W              74 73   CALM  /  2 1014.4F   3/ 5   3/ 5
28.8N   86.0W              76 76  180/  8/ 10 1015.2    3/ 5   3/ 5
PANAMA CITY BEAC           74 75  240/  4/  5 1014.8R
CAPE SAN BLAS    NOT AVBL
TOWER C                    74     160/ 11/ 11 1015.2S
28.5N   84.5W              77 76  160/  6/  8 1015.9F   2/ 4   2/ 6

$$
FLZ011-016>038-118-127-128-134-139-239-180500-
NORTH FLORIDA

CITY           SKY/WX    TMP DP  RH WIND       PRES   REMARKS
MARIANNA       PTCLDY    69  69 100 CALM      29.96F
TALLAHASSEE    CLOUDY    73  71  93 SW8G18    29.98R
PERRY          CLOUDY    70  69  95 E3        30.00S
CROSS CITY       N/A    N/A N/A N/A MISG      29.99F
LAKE CITY      FAIR      68  68 100 SE5       30.00F
GAINESVILLE    CLOUDY    68  66  93 CALM      30.02F
MAYPORT NAS    CLOUDY    66  66 100 S3        30.01F
JACKSONVILLE   CLOUDY    66  64  93 CALM      30.00F
JAX NAS        PTCLDY    73  65  75 S8        30.01F
JAX CRAIG      MOCLDY    68  64  87 CALM      30.01F
JAX CECIL      MOCLDY    66  64  94 CALM      30.01F FOG
FERNANDINA BEA FAIR      72  68  88 CALM      29.99F
ST AUGUSTINE   MOCLDY    67  66  97 SW3       30.03S

STATION/POSITION SKY/WX   TEMP    WIND        PRES    WAVE   SWELL
                          AIR SEA DIR/SP/G            HT/PER HT/PER
                          (F)     (DEG/KT/KT) (MB)    (FT/S) (FT/S)
SHELL POINT                75     160/ 16/ 18   N/A
KEATON BEACH               72     120/  4/  5 1015.8F
CEDAR KEY                  74     110/  7/  7 1016.4F
FERNANDINA                 68 70  150/  2/  2 1015.9R
30.7N   81.3W                 69                N/A     2/11   2/11
MAYPORT                    68 69  220/  1/  2 1016.6R
31.4N   80.9W              66 67  100/  2/  2 1015.9F   2/11   2/11
ST AUGUSTINE               68 69  250/  2/  3 1017.2F

$$
FLZ040-043>046-052-053-057-058-063-144-180500-
INTERIOR CENTRAL FLORIDA

CITY           SKY/WX    TMP DP  RH WIND       PRES   REMARKS
OCALA          CLOUDY    72  68  88 CALM      30.03S
THE VILLAGES     N/A     72  72 100 E5        29.93R
LEESBURG       CLOUDY    72  69  90 SE7       30.03F
SANFORD        CLOUDY    71  69  93 CALM      30.02F
ORLANDO EXEC   CLOUDY    73  70  90 NE3       30.02F
ORLANDO INTL   MOCLDY    73  71  93 E6        30.02F
WINTER HAVEN   PTCLDY    74  70  87 NE5       30.03S
LAKELAND       MOCLDY    72  70  94 CALM      30.02S
BARTOW         MOCLDY    72  72 100 CALM      30.03R
OKEECHOBEE     MOCLDY    72  70  94 CALM      30.01S

$$
FLZ041-047-054-059-064-141-147-180500-
EAST CENTRAL FLORIDA

CITY           SKY/WX    TMP DP  RH WIND       PRES   REMARKS
DAYTONA BEACH  CLOUDY    70  69  97 CALM      30.02F
DELAND           N/A    N/A N/A N/A S3        30.03S
JFK SPACE CTR  CLOUDY    71  69  95 E5        30.00F
CAPE CANAVERAL CLOUDY    74  72  93 NE5       30.00S
PATRICK AFB    CLOUDY    75  73  93 NE8       30.00F
MELBOURNE      CLOUDY    76  73  91 N5        30.00F
VERO BEACH     CLOUDY    75  71  87 CALM      30.01S
FT PIERCE      MOCLDY    74  70  87 CALM      30.00S
STUART         MOCLDY    73  70  88 SW6       30.02R

STATION/POSITION SKY/WX   TEMP    WIND        PRES    WAVE   SWELL
                          AIR SEA DIR/SP/G            HT/PER HT/PER
                          (F)     (DEG/KT/KT) (MB)    (FT/S) (FT/S)
28.5N   80.2W              77 79   30/ 10/ 12 1016.6R
28.9N   78.5W              77 78  160/  6/  8 1016.7F
TRIDENT PIER               72 79   40/  4/  4 1016.9R
28.4N   80.5W                 78                N/A     2/10
27.5N   80.2W                 78                N/A     3/ 9   2/11

$$
FLZ050-056-061-142-242-148-248-149-249-151-251-155-255-
160-260-180500-
WEST CENTRAL FLORIDA

CITY           SKY/WX    TMP DP  RH WIND       PRES   REMARKS
CRYSTAL RIVER  MOCLDY    72  68  88 CALM      30.02R
INVERNESS      CLOUDY   N/A N/A N/A CALM      30.03R
BROOKSVILLE    MOCLDY    73  71  93 CALM      30.03R
CLEARWATER     CLEAR     74  71  91 CALM      30.01S
TAMPA INTL     PTCLDY    78  70  76 CALM      30.02R
TAMPA EXEC     CLOUDY    73  72  94 CALM      30.02S
PLANT CITY     CLOUDY    75  73  94 CALM      30.04S
MACDILL AFB    MOCLDY    77  75  93 NW2       30.01S
PETER O KNIGHT PTCLDY    79  73  83 CALM      30.02R
ST PETERSBURG  CLEAR     78  73  84 W3        29.99S
SARASOTA       PTCLDY    75  72  90 E3        29.99F
VENICE         FAIR      77  75  94 SW3       30.01F

STATION/POSITION SKY/WX   TEMP    WIND        PRES    WAVE   SWELL
                          AIR SEA DIR/SP/G            HT/PER HT/PER
                          (F)     (DEG/KT/KT) (MB)    (FT/S) (FT/S)
CEDAR KEY                  74     110/  7/  7 1016.4F
28.5N   84.5W              77 76  160/  6/  8 1015.9F   2/ 4   2/ 6
27.3N   84.2W                 78                N/A     2/ 4
CLEARWATER BEACH                  200/  7/  8   N/A
MIDDLE TAMPA BAY           78     210/  5/  7 1016.4R
VENICE                     79 83  200/  6/  7 1015.7F

$$
FLZ066-069-070-075>078-162-262-165-265-180500-
SOUTHWEST FLORIDA AND KEYS

CITY           SKY/WX    TMP DP  RH WIND       PRES   REMARKS
PUNTA GORDA    MOCLDY    73  72  96 CALM      30.02F
FT MYERS       PTCLDY    77  73  87 CALM      30.00S
SOUTHWEST INTL MOCLDY    74  70  87 CALM      30.01S
NAPLES         MOCLDY    76  72  87 S3        30.00S
MARCO ISLAND   PTCLDY    75  72  88 CALM      30.01S
IMMOKALEE      CLEAR    N/A N/A N/A CALM      30.02S
MARATHON       PTCLDY    80  75  84 SE6       30.01S
KEY WEST NAS   PTCLDY    78  73  84 SE8       30.01S
KEY WEST INTL  PTCLDY    79  74  84 SE10      30.01S

STATION/POSITION SKY/WX   TEMP    WIND        PRES    WAVE   SWELL
                          AIR SEA DIR/SP/G            HT/PER HT/PER
                          (F)     (DEG/KT/KT) (MB)    (FT/S) (FT/S)
VENICE                     79 83  200/  6/  7 1015.7F
NAPLES                     80 84  230/  4/  6 1016.0R
26.0N   85.6W              79 80  170/  6/  8 1015.2R   2/ 6   2/ 6
DRY TORTUGAS               79     130/  6/  6 1015.8R
NW FL BAY                  81     150/  5/  7 1016.6
SAND KEY                   79     110/ 10/ 12 1016.1S
SOMBRERO KEY               79     120/ 10/ 10 1017.0S
LONG KEY                   79 84  130/  9/ 11 1017.0F
MOLASSES REEF              79 79  130/  6/  7 1016.5R

$$
FLZ067-068-071>074-168-172>174-180500-
SOUTHEAST FLORIDA

CITY           SKY/WX    TMP DP  RH WIND       PRES   REMARKS
W PALM BEACH   MOCLDY    78  70  76 SE5       30.01F
FT LAUDER-EXEC PTCLDY    78  74  87 CALM      30.01F
FT LAUDERDALE  MOCLDY    80  72  76 S3        30.00F
POMPANO BEACH  PTCLDY    79  73  82 CALM      30.00F
PEMBROKE PINES PTCLDY    79  71  76 S3        30.02F
OPA LOCKA      MOCLDY    78  72  81 S3        30.01F
MIAMI          MOCLDY    78  70  76 S5        30.01F
WEST KENDALL   MOCLDY    77  71  82 SE3       30.02S
HOMESTEAD      PTCLDY    74  71  91 E2        30.01F

STATION/POSITION SKY/WX   TEMP    WIND        PRES    WAVE   SWELL
                          AIR SEA DIR/SP/G            HT/PER HT/PER
                          (F)     (DEG/KT/KT) (MB)    (FT/S) (FT/S)
PORT EVERGLADES            80     200/  3/  5 1016.4R
VIRGINIA KEY               80 83  170/  4/  5 1016.2R
LAKE WORTH                 79 80  170/  6/  7 1016.1R
SETTLEMENT POINT           78     170/  7/  8 1017.2F

$$



USA.gov is the U.S. government's official web portal to all federal, state and local government web resources and services.